TimeCDT,TemperatureF,Dew PointF,Humidity,Sea Level PressureIn,VisibilityMPH,Wind Direction,Wind SpeedMPH,Gust SpeedMPH,PrecipitationIn,Events,Conditions,WindDirDegrees,DateUTC
12:53 AM,75.0,70.0,84,29.98,9.0,Calm,Calm,-,N/A,,Clear,0,2013-08-29 05:53:00
1:53 AM,77.0,71.1,82,29.97,9.0,SE,3.5,-,N/A,,Partly Cloudy,140,2013-08-29 06:53:00
2:53 AM,78.1,71.1,79,29.96,10.0,ESE,4.6,-,N/A,,Scattered Clouds,120,2013-08-29 07:53:00
3:53 AM,77.0,71.1,82,29.97,10.0,ESE,5.8,-,N/A,,Mostly Cloudy,120,2013-08-29 08:53:00
4:17 AM,77.0,71.6,83,29.98,10.0,ESE,5.8,-,N/A,Thunderstorm,Mostly Cloudy,120,2013-08-29 09:17:00
4:31 AM,77.0,71.6,83,29.97,10.0,SE,8.1,-,N/A,Thunderstorm,Overcast,140,2013-08-29 09:31:00
4:53 AM,75.9,72.0,87,29.95,6.0,Calm,Calm,-,0.03,Rain-Thunderstorm,Light Thunderstorms and Rain,0,2013-08-29 09:53:00
5:44 AM,75.2,73.4,94,29.97,7.0,SSE,8.1,-,0.01,,Overcast,150,2013-08-29 10:44:00
5:53 AM,77.0,72.0,84,29.95,8.0,SSE,10.4,-,0.01,,Overcast,160,2013-08-29 10:53:00
6:19 AM,75.2,71.6,89,29.97,10.0,South,5.8,-,N/A,,Scattered Clouds,180,2013-08-29 11:19:00
6:53 AM,75.9,72.0,87,29.96,6.0,ESE,3.5,-,N/A,,Clear,120,2013-08-29 11:53:00
7:38 AM,73.4,69.8,88,29.98,10.0,ESE,5.8,-,N/A,,Mostly Cloudy,120,2013-08-29 12:38:00
7:53 AM,75.0,70.0,84,29.96,8.0,SE,4.6,-,N/A,,Mostly Cloudy,140,2013-08-29 12:53:00
8:16 AM,75.2,71.6,89,29.97,6.0,SE,4.6,-,N/A,,Scattered Clouds,130,2013-08-29 13:16:00
8:53 AM,78.1,73.0,84,29.94,5.0,SSE,8.1,-,N/A,,Haze,150,2013-08-29 13:53:00
9:53 AM,81.0,73.0,77,29.95,6.0,SSE,6.9,-,N/A,,Haze,160,2013-08-29 14:53:00
10:53 AM,84.9,73.0,67,29.94,7.0,SSE,9.2,-,N/A,,Clear,150,2013-08-29 15:53:00
11:53 AM,87.1,73.9,65,29.93,8.0,SE,10.4,-,N/A,,Clear,140,2013-08-29 16:53:00
12:53 PM,91.0,70.0,50,29.91,10.0,South,10.4,-,N/A,,Clear,190,2013-08-29 17:53:00
1:53 PM,93.0,69.1,45,29.90,10.0,South,11.5,-,N/A,,Clear,190,2013-08-29 18:53:00
2:53 PM,93.9,61.0,33,29.88,10.0,South,12.7,20.7,N/A,,Clear,190,2013-08-29 19:53:00
3:53 PM,91.0,64.9,42,29.84,10.0,South,12.7,20.7,N/A,,Clear,170,2013-08-29 20:53:00
4:53 PM,91.0,66.9,45,29.84,10.0,South,11.5,-,N/A,,Clear,180,2013-08-29 21:53:00
5:53 PM,90.0,66.9,46,29.85,10.0,SSW,10.4,18.4,N/A,,Clear,210,2013-08-29 22:53:00
6:53 PM,89.1,66.9,48,29.84,10.0,SSW,9.2,17.3,N/A,,Mostly Cloudy,210,2013-08-29 23:53:00
7:53 PM,87.1,68.0,53,29.83,10.0,SSW,3.5,-,N/A,,Clear,200,2013-08-30 00:53:00
8:53 PM,82.9,69.1,63,29.84,10.0,Calm,Calm,-,N/A,,Clear,0,2013-08-30 01:53:00
9:53 PM,81.0,70.0,69,29.84,10.0,South,5.8,-,N/A,,Clear,170,2013-08-30 02:53:00
10:53 PM,80.1,71.1,74,29.83,10.0,South,5.8,-,N/A,,Partly Cloudy,170,2013-08-30 03:53:00
11:53 PM,80.1,71.1,74,29.81,10.0,South,6.9,-,N/A,,Clear,170,2013-08-30 04:53:00